Photometre #347[NE_1.6] Troodos_CAO AOT

File : 20221125_347.hum

25/11/2022,05:22:21,TEMP=2.0,BA=5.64,STAT.A=1.0,ExtBa=14.05
25/11/2022,05:26:02,TEMP=2.2,BA=5.64,STAT.A=1.0,ExtBa=13.94
25/11/2022,05:30:23,TEMP=2.3,BA=5.64,STAT.A=1.0,ExtBa=13.88
25/11/2022,05:35:13,TEMP=2.6,BA=5.64,STAT.h
25/11/2022,05:41:32,TEMP=2.6,BA=5.64,STAT.h
25/11/2022,05:49:24,TEMP=2.6,BA=5.64,STAT.h
25/11/2022,05:59:30,TEMP=2.6,BA=5.64,STAT.h
25/11/2022,06:04:24,TEMP=2.6,BA=5.64,STAT.h
25/11/2022,06:09:56,TEMP=2.6,BA=5.64,STAT.h
25/11/2022,06:16:14,TEMP=2.6,BA=5.64,STAT.h
25/11/2022,06:23:31,TEMP=2.6,BA=5.64,STAT.h
25/11/2022,06:32:02,TEMP=2.6,BA=5.64,STAT.h
25/11/2022,06:35:29,TEMP=2.6,BA=5.64,STAT.h
25/11/2022,06:50:49,TEMP=3.0,BA=5.64,STAT.D=1.0,ExtBa=14.07
25/11/2022,07:05:49,TEMP=2.5,BA=5.64,STAT.D=1.0,ExtBa=14.07
25/11/2022,07:20:49,TEMP=2.5,BA=5.64,STAT.D=1.0,ExtBa=14.07
25/11/2022,07:35:29,TEMP=3.0,BA=5.64,STAT.h
25/11/2022,07:40:29,TEMP=3.0,BA=5.64,STAT.h
25/11/2022,07:50:29,TEMP=3.0,BA=5.64,STAT.h
25/11/2022,08:05:29,TEMP=3.0,BA=5.64,STAT.h
25/11/2022,08:20:29,TEMP=3.0,BA=5.64,STAT.h
25/11/2022,08:35:29,TEMP=3.0,BA=5.64,STAT.h
25/11/2022,08:50:49,TEMP=2.8,BA=5.64,STAT.D=1.0,ExtBa=14.06
25/11/2022,09:05:49,TEMP=2.8,BA=5.64,STAT.D=1.0,ExtBa=14.07
25/11/2022,09:20:29,TEMP=3.1,BA=5.64,STAT.h
25/11/2022,09:35:51,TEMP=3.1,BA=5.64,STAT.F,ExtBa=14.03
25/11/2022,09:36:45,TEMP=3.1,BA=5.64,STAT.h
25/11/2022,09:50:49,TEMP=3.2,BA=5.64,STAT.D=1.0,ExtBa=14.07
25/11/2022,09:50:55,TEMP=3.2,BA=5.64,STAT.h
25/11/2022,10:05:29,TEMP=3.2,BA=5.64,STAT.h
25/11/2022,10:20:29,TEMP=3.2,BA=5.64,STAT.h
25/11/2022,10:35:29,TEMP=3.2,BA=5.64,STAT.h
25/11/2022,10:50:29,TEMP=3.2,BA=5.64,STAT.h
25/11/2022,11:05:49,TEMP=2.0,BA=5.64,STAT.D=1.0,ExtBa=14.06
25/11/2022,11:20:49,TEMP=1.4,BA=5.64,STAT.D=1.0,ExtBa=14.07
25/11/2022,11:35:51,TEMP=1.8,BA=5.64,STAT.F,ExtBa=14.04
25/11/2022,11:50:29,TEMP=2.2,BA=5.64,STAT.h
25/11/2022,12:05:49,TEMP=2.3,BA=5.64,STAT.D=1.0,ExtBa=14.07
25/11/2022,12:20:49,TEMP=1.5,BA=5.64,STAT.D=1.0,ExtBa=14.07
25/11/2022,12:35:50,TEMP=0.6,BA=5.64,STAT.F,ExtBa=14.03
25/11/2022,12:39:17,TEMP=0.6,BA=5.64,STAT.C=1.0,ExtBa=14.01
25/11/2022,12:47:48,TEMP=0.2,BA=5.60,STAT.A=1.0,ExtBa=13.85
25/11/2022,12:55:05,TEMP=0.6,BA=5.36,STAT.A=1.0,ExtBa=13.83
25/11/2022,13:01:23,TEMP=0.9,BA=5.64,STAT.A=1.0,ExtBa=13.88
25/11/2022,13:06:55,TEMP=1.1,BA=5.64,STAT.A=1.0,ExtBa=13.91
25/11/2022,13:11:49,TEMP=1.5,BA=5.64,STAT.B=1.0,ExtBa=13.92
25/11/2022,13:21:34,TEMP=1.8,BA=5.64,STAT.h
25/11/2022,13:29:47,TEMP=1.8,BA=5.64,STAT.A=1.0,ExtBa=14.07
25/11/2022,13:36:06,TEMP=1.6,BA=5.64,STAT.A=1.0,ExtBa=14.05
25/11/2022,13:41:17,TEMP=1.7,BA=5.64,STAT.A=1.0,ExtBa=14.04
25/11/2022,13:45:38,TEMP=1.9,BA=5.64,STAT.A=1.0,ExtBa=14.01
25/11/2022,13:48:58,TEMP=2.2,BA=5.64,STAT.h
25/11/2022,14:40:29,TEMP=2.2,BA=5.64,STAT.h